Flag for United Kingdom Weather past 2 weeks in Manchester, England, United Kingdom

Now
61 °F

Light rain. Partly cloudy.


Feels Like: 61 °F
Forecast: 54 / 62 °F
Wind: 12 mph from Southeast

Location: Manchester Airport

Current Time: Aug 28, 2014 at 3:07:00 AM

Latest Report: Aug 28, 2014 at 2:20 AM


Visibility: 4 mi

Pressure: 29.74 "Hg

Humidity: 88%

Dew point: 57 °F

Location of ManchesterLocation

Historic Weather in Manchester — Graph

°F

Manchester temperature yesterday

Maximum temperature yesterday: 66 °F (at 1:20 PM)
Minimum temperature yesterday: 43 °F (at 3:20 AM)
Average temperature yesterday: 56 °F

Past Weeks' High & Low Weather Summary

 TemperatureHumidityPressure
High68 °F (Aug 15, 4:20 PM)100% (Aug 13, 2:20 AM)30.15 "Hg (Aug 13, 2:20 AM)
Low43 °F (Aug 24, 5:20 AM)48% (Aug 19, 4:50 PM)29.56 "Hg (Aug 13, 2:20 AM)
Average56 °F80%29.87 "Hg
* Reported Aug 13 1:20 AM — Aug 28 1:50 AM, Manchester, Weather by CustomWeather, © 2014

Note: Actual official high and low records may vary slightly from our data, if they occured in-between our weather recording intervals... More about our weather records

Advertising

Manchester weather history for previous 24 hours

 ConditionsComfort  
Time TempWeatherWind HumidityBarometerVisibility
1:50 AM
Aug 28
61 °FPassing clouds.15 mph83%29.74 "HgN/A
1:20 AM61 °FPassing clouds.15 mph83%29.77 "HgN/A
12:50 AM61 °FPartly cloudy.14 mph83%29.77 "HgN/A
12:20 AM61 °FPassing clouds.14 mph83%29.77 "HgN/A
11:50 PM
Aug 27
63 °FPassing clouds.15 mph77%29.77 "HgN/A
11:20 PM63 °FPassing clouds.18 mph73%29.80 "HgN/A
10:50 PM63 °FPassing clouds.16 mph73%29.80 "HgN/A
10:20 PM63 °FPassing clouds.13 mph73%29.80 "HgN/A
9:50 PM63 °FOvercast.12 mph68%29.80 "HgN/A
9:20 PM63 °FPartly cloudy.13 mph68%29.83 "HgN/A
8:50 PM63 °FPartly sunny.10 mph68%29.83 "HgN/A
8:20 PM64 °FPartly sunny.13 mph64%29.83 "HgN/A
7:50 PM64 °FPassing clouds.13 mph60%29.83 "HgN/A
6:50 PM64 °FPassing clouds.12 mph60%29.86 "HgN/A
6:20 PM66 °FPassing clouds.14 mph56%29.86 "HgN/A
5:50 PM66 °FScattered clouds.15 mph56%29.86 "HgN/A
5:20 PM66 °FScattered clouds.14 mph56%29.86 "HgN/A
4:50 PM66 °FScattered clouds.15 mph56%29.89 "HgN/A
3:20 PM66 °FScattered clouds.13 mph56%29.92 "HgN/A
2:50 PM66 °FScattered clouds.15 mph56%29.92 "HgN/A
2:20 PM64 °FPassing clouds.15 mph56%29.95 "HgN/A
1:50 PM64 °FPassing clouds.16 mph56%29.95 "HgN/A
1:20 PM66 °FPassing clouds.15 mph52%29.95 "HgN/A
12:50 PM64 °FScattered clouds.14 mph60%29.98 "HgN/A
12:20 PM63 °FPartly sunny.15 mph64%29.98 "HgN/A
11:50 AM63 °FBroken clouds.13 mph64%29.98 "HgN/A
11:20 AM61 °FPartly sunny.12 mph68%30.01 "HgN/A
10:50 AM61 °FPartly sunny.12 mph68%30.01 "HgN/A
10:20 AM59 °FPartly sunny.10 mph72%30.01 "HgN/A
9:50 AM59 °FScattered clouds.10 mph72%30.01 "HgN/A
9:20 AM57 °FPassing clouds.8 mph82%30.01 "HgN/A
8:50 AM55 °FPassing clouds.9 mph88%30.01 "HgN/A
8:20 AM55 °FPassing clouds.6 mph82%30.01 "HgN/A
7:50 AM50 °FPassing clouds.3 mph94%30.01 "HgN/A
7:20 AM46 °FPassing clouds.3 mph93%30.01 "HgN/A
6:50 AM45 °FPassing clouds.2 mph93%30.01 "HgN/A
6:20 AM45 °FFog.7 mph93%30.01 "HgN/A
5:50 AM43 °FClear.8 mph100%30.01 "Hg10 mi
5:20 AM43 °FClear.6 mph93%30.01 "Hg10 mi
4:50 AM43 °FClear.5 mph93%30.01 "Hg4 mi
4:20 AM43 °FClear.6 mph93%30.01 "Hg10 mi
3:50 AM43 °FClear.No wind93%30.01 "Hg10 mi
3:20 AM43 °FClear.2 mph87%30.01 "Hg10 mi
Weather by CustomWeather, © 2014

See weather overviewHow to use our weather pages